Regional Weather Roundup
Issued by NWS State College, PA

Home | Current Version | Previous Version | Text Only | Print | Product List | Glossary On
Versions: 1 2 3 4 5 6 7 8 9 10 11 12 13 14 15 16 17 18 19 20 21 22 23 24 25 26 27 28 29 30 31 32 33 34 35 36 37 38 39 40 41 42 43 44 45 46 47 48 49 50
000
ASUS41 KCTP 160910
RWRCTP

REGIONAL WEATHER ROUNDUP
NATIONAL WEATHER SERVICE STATE COLLEGE PA
400 AM EST TUE JAN 16 2018

Note: "fair" indicates few or no clouds below 12,000 feet with no
significant weather and/or obstructions to visibility.

* = STATION THAT DOES NOT REPORT PRECIPITATION /E.G. RAIN...SNOW...ETC/
    THUNDER OR FOG.

PAZ002>004-007>009-013>016-020>023-029>032-161000-
WESTERN PENNSYLVANIA

CITY           SKY/WX    TMP DP  RH WIND       PRES   REMARKS
ERIE           FLURRIES  25  19  78 W10       30.32R WCI  15
MEADVILLE      CLOUDY    21  19  92 W6        30.28R WCI  13
FRANKLIN*      LGT SNOW  22  20  92 CALM      30.28S FOG
NEW CASTLE     LGT SNOW  23  22  96 SW5       30.33R FOG
BEAVER COUNTY  NOT AVBL
BUTLER*        LGT SNOW  24  23  96 SW5       30.31S FOG
PITTSBURGH INT LGT SNOW  26  24  92 SW5       30.31R FOG
PITTSBURGH     CLOUDY    26  22  84 SW6       30.31R
INDIANA*       CLOUDY    27  25  93 SW8       30.34S
LATROBE        MIX PCPN  28  25  86 SW6       30.34R
WASHINGTON CO* FLURRIES  26  24  92 SW3       30.35R
$$

PAZ004>006-010>012-017>019-024>028-033>037-041-042-045-046-049>053-161000-
CENTRAL PENNSYLVANIA

CITY           SKY/WX    TMP DP  RH WIND       PRES   REMARKS
BRADFORD       LGT SNOW  19  16  88 S5        30.23R FOG     WCI  12
DUBOIS         LGT SNOW  20  17  88 S5        30.26S FOG     WCI  13
CLEARFIELD     LGT SNOW  20  17  88 N3        30.30F FOG
JOHNSTOWN      CLOUDY    22  14  71 SW5       30.25R
ALTOONA        CLOUDY    24  16  71 SW3       30.33R
STATE COLLEGE  FLURRIES  22  18  86 W3        30.35S
WILLIAMSPORT   CLOUDY    24  20  84 NE8       30.39S
SELINSGROVE    CLOUDY    25  20  81 CALM      30.42F
FT INDIANTOWN  MIX PCPN  25  23  93 CALM      30.44R
CAPITAL CITY   CLOUDY    28  20  71 SE3       30.44S
HARRISBURG     CLOUDY    27  20  75 E5        30.44S
YORK           CLOUDY    28  26  92 CALM      30.42S
$$

PAZ038>040-043-044-047-048-054-055-060>062-067>071-161000-
EASTERN PENNSYLVANIA

CITY           SKY/WX    TMP DP  RH WIND       PRES   REMARKS
SCRANTON       CLOUDY    25  21  85 VRB3      30.38F
MOUNT POCONO   CLOUDY    17  16  95 E3        30.34R FOG
ALLENTOWN      CLOUDY    28  20  71 E8        30.45F
QUAKERTOWN*    CLOUDY    27  23  86 MISG      30.45F
READING        CLOUDY    29  26  89 S3        30.44F
LANCASTER      LGT SNOW  27  25  92 CALM      30.44R FOG
COATESVILLE    CLOUDY    27  28 100 CALM      30.44S
POTTSTOWN      CLOUDY    26  23  88 NE5       30.47S
BLUE BELL      CLOUDY    27  23  86 NE3       30.47F
DOYLESTOWN     CLOUDY    26  22  84 CALM      30.45F
WILLOW GROVE   NOT AVBL
NORTH PHILA    CLOUDY    30  23  75 NE6       30.50S
PHILADELPHIA   CLOUDY    30  24  78 E9        30.48F
$$




USA.gov is the U.S. government's official web portal to all federal, state and local government web resources and services.